TimePDT,TemperatureF,Dew PointF,Humidity,Sea Level PressureIn,VisibilityMPH,Wind Direction,Wind SpeedMPH,Gust SpeedMPH,PrecipitationIn,Events,Conditions,WindDirDegrees,DateUTC
12:56 AM,51.1,45.0,80,29.90,10.0,Calm,Calm,-,N/A,,Partly Cloudy,0,2013-07-08 07:56:00
1:56 AM,50.0,45.0,83,29.90,10.0,Calm,Calm,-,N/A,,Partly Cloudy,0,2013-07-08 08:56:00
2:56 AM,48.9,44.1,83,29.91,10.0,Calm,Calm,-,N/A,,Mostly Cloudy,0,2013-07-08 09:56:00
3:56 AM,48.0,44.1,86,29.92,10.0,Calm,Calm,-,N/A,,Mostly Cloudy,0,2013-07-08 10:56:00
4:56 AM,46.9,43.0,86,29.94,10.0,Calm,Calm,-,N/A,,Clear,0,2013-07-08 11:56:00
5:56 AM,46.0,42.1,86,29.96,10.0,Calm,Calm,-,N/A,,Clear,0,2013-07-08 12:56:00
6:56 AM,52.0,45.0,77,29.96,10.0,Calm,Calm,-,N/A,,Clear,0,2013-07-08 13:56:00
7:56 AM,62.1,44.1,52,29.97,10.0,Calm,Calm,-,N/A,,Clear,0,2013-07-08 14:56:00
8:56 AM,64.9,41.0,42,29.99,10.0,Calm,Calm,-,N/A,,Clear,0,2013-07-08 15:56:00
9:56 AM,66.9,39.0,36,30.01,10.0,Variable,4.6,-,N/A,,Clear,0,2013-07-08 16:56:00
10:56 AM,69.1,41.0,36,30.03,10.0,Variable,4.6,-,N/A,,Clear,0,2013-07-08 17:56:00
11:56 AM,71.1,39.9,32,30.04,10.0,Variable,4.6,-,N/A,,Clear,0,2013-07-08 18:56:00
12:56 PM,75.0,39.0,27,30.04,10.0,Variable,5.8,-,N/A,,Clear,0,2013-07-08 19:56:00
1:56 PM,75.9,39.0,26,30.04,10.0,Calm,Calm,-,N/A,,Clear,0,2013-07-08 20:56:00
2:56 PM,78.1,39.0,25,30.04,10.0,Calm,Calm,-,N/A,,Clear,0,2013-07-08 21:56:00
3:56 PM,78.1,39.9,25,30.04,10.0,Calm,Calm,-,N/A,,Clear,0,2013-07-08 22:56:00
4:56 PM,77.0,37.9,24,30.05,10.0,Calm,Calm,-,N/A,,Clear,0,2013-07-08 23:56:00
5:56 PM,77.0,41.0,28,30.05,10.0,Calm,Calm,-,N/A,,Clear,0,2013-07-09 00:56:00
6:56 PM,75.0,37.0,25,30.05,10.0,Variable,3.5,-,N/A,,Clear,0,2013-07-09 01:56:00
7:56 PM,70.0,39.0,32,30.05,10.0,Calm,Calm,-,N/A,,Clear,0,2013-07-09 02:56:00
8:56 PM,61.0,43.0,52,30.07,10.0,Calm,Calm,-,N/A,,Clear,0,2013-07-09 03:56:00
9:56 PM,55.9,46.0,69,30.10,10.0,Calm,Calm,-,N/A,,Clear,0,2013-07-09 04:56:00
10:56 PM,52.0,45.0,77,30.12,10.0,Calm,Calm,-,N/A,,Clear,0,2013-07-09 05:56:00
11:56 PM,48.9,43.0,80,30.12,10.0,Calm,Calm,-,N/A,,Clear,0,2013-07-09 06:56:00